Hundvaag 1 weather for Dec 1995
Month no. 102
Obs.
Da.
Temp. Dew Point Precip. Wind
Speed
Wind gusts Cloud cover Press. Humidity Wind dir. Sunny OPT
01.12.1995 1,1   0,0     0       1  
02.12.1995 2,1   0,0     8          
03.12.1995 3,7   0,0     1          
04.12.1995 4,1   0,0     0          
05.12.1995 -2,6   0,0     10          
06.12.1995 -3,7   0,0     7          
07.12.1995 -0,2   0,0     8          
08.12.1995 2,3   0,0     0       1  
09.12.1995 2,3   3,0     0          
10.12.1995 7,8   17,2     0          
11.12.1995 7,4   7,9     10          
12.12.1995 3,3   1,2     10          
13.12.1995 4,3   1,1     10          
14.12.1995 2,8   0,0     0          
15.12.1995 -2,4   0,0     0       1  
16.12.1995 -2,3   0,0     10          
17.12.1995 -2,3   0,0     10          
18.12.1995 -0,5   0,0     0          
19.12.1995 -1,0   0,0     10          
20.12.1995 -3,0   6,0     9          
21.12.1995 -5,2   1,0     10       1  
22.12.1995 -2,6   0,0     8       1  
23.12.1995 -5,7   0,0     9          
24.12.1995 -5,8   0,0     3          
25.12.1995 -1,3   0,0     0          
26.12.1995 -5,3   0,0     10          
27.12.1995 -4,0   0,0     3          
28.12.1995 -6,5   0,0     10       1  
29.12.1995 2,0   0,0     0       1  
30.12.1995 -3,4   0,2     7       1  
31.12.1995 -4,3   0,0     10          
Avrg/Sum -0,6   37,6     5,6       8